Puyallup, WA

1:31 AM PDT on March 29, 2017 (GMT -0700)
Pierce County - Thun Field

Weather History for KPLU - November, 2013

Change the Weather History Date:

Tuesday, November 5, 2013

  Actual Average (KTCM) Record (KTCM)
Temperature  
Mean Temperature 46 °F -  
Max Temperature 51 °F 52 °F 86 °F (2004)
Min Temperature 41 °F 35 °F 19 °F (2003)
Degree Days  
Heating Degree Days 19    
Moisture  
Dew Point 46 °F    
Average Humidity 94    
Maximum Humidity 100    
Minimum Humidity 82    
Precipitation  
Precipitation 0.05 in - - ()
Sea Level Pressure  
Sea Level Pressure 30.11 in    
Wind  
Wind Speed 1 mph (SW)    
Max Wind Speed 9 mph    
Max Gust Speed 16 mph    
Visibility 9 miles    
Events Rain    
Averages and records for this station are not official NWS values.
T = Trace of Precipitation, MM = Missing Value Source: NWS Daily Summary

Daily Weather History Graph

Daily Weather History Graph

Search for Another Location

Airport or City:

Trip Planner

Search our weather history database for the weather conditions in past years. The results will help you decide how hot, cold, wet, or windy it might be!

Date:

Astronomy

Nov. 05, 2013 Rise Set
Actual Time 6:58 AM PST 4:46 PM PST
Civil Twilight 6:26 AM PST 5:18 PM PST
Nautical Twilight 5:49 AM PST 5:54 PM PST
Astronomical Twilight 5:14 AM PST 6:30 PM PST
Moon 9:25 AM PST (11/5) 6:47 PM PST (11/5)
Length of Visible Light 10h 52m
Length of Day
9h 47m
Waxing Crescent, 7% of the Moon is Illuminated
Nov 5
Waxing Crescent
Nov 9
First Quarter
Nov 17
Full
Nov 25
Last Quarter
Dec 2
New

Hourly Weather History & Observations

Time (PST) Temp. Dew Point Humidity Pressure Visibility Wind Dir Wind Speed Gust Speed Precip Events Conditions
12:15 AM 41.0 °F 41.0 °F 100% 30.05 in 10.0 mi Calm Calm - 0.01 in Rain Light Rain
12:35 AM 41.0 °F 41.0 °F 100% 30.05 in 9.0 mi Calm Calm - 0.01 in Rain Light Rain
12:55 AM 41.0 °F 41.0 °F 100% 30.04 in 5.0 mi Calm Calm - 0.02 in Rain Light Rain
1:15 AM 42.8 °F 42.8 °F 100% 30.03 in 4.0 mi Calm Calm - 0.01 in Rain Light Rain
1:35 AM 42.8 °F 42.8 °F 100% 30.03 in 10.0 mi Calm Calm - 0.01 in   Unknown
1:55 AM 42.8 °F 42.8 °F 100% 30.03 in 10.0 mi Calm Calm - 0.01 in   Unknown
2:15 AM 42.8 °F 42.8 °F 100% 30.03 in 10.0 mi Calm Calm - N/A   Unknown
2:35 AM 42.8 °F 42.8 °F 100% 30.03 in 10.0 mi Calm Calm - N/A   Unknown
2:55 AM 42.8 °F 42.8 °F 100% 30.03 in 10.0 mi Calm Calm - N/A   Unknown
3:15 AM 42.8 °F 42.8 °F 100% 30.03 in 10.0 mi Calm Calm - N/A   Unknown
3:35 AM 44.6 °F 44.6 °F 100% 30.03 in 10.0 mi Calm Calm - N/A   Unknown
3:55 AM 44.6 °F 44.6 °F 100% 30.03 in 10.0 mi Calm Calm - N/A   Unknown
4:15 AM 44.6 °F 44.6 °F 100% 30.03 in 10.0 mi Calm Calm - N/A Rain Light Rain
4:35 AM 44.6 °F 44.6 °F 100% 30.03 in 10.0 mi Calm Calm - N/A   Unknown
4:55 AM 44.6 °F 44.6 °F 100% 30.03 in 10.0 mi Calm Calm - N/A   Unknown
5:15 AM 44.6 °F 44.6 °F 100% 30.03 in 10.0 mi Calm Calm - N/A   Unknown
5:35 AM 44.6 °F 44.6 °F 100% 30.02 in 10.0 mi Calm Calm - N/A   Unknown
5:55 AM 44.6 °F 44.6 °F 100% 30.01 in 10.0 mi Calm Calm - N/A   Unknown
6:15 AM 44.6 °F 44.6 °F 100% 30.02 in 10.0 mi Calm Calm - N/A   Unknown
6:35 AM 46.4 °F 46.4 °F 100% 30.02 in 10.0 mi Calm Calm - N/A   Unknown
6:55 AM 46.4 °F 46.4 °F 100% 30.03 in 10.0 mi Calm Calm - N/A   Unknown
7:15 AM 48.2 °F 48.2 °F 100% 30.04 in 10.0 mi Calm Calm - N/A   Unknown
7:35 AM 50.0 °F 48.2 °F 94% 30.04 in 10.0 mi Calm Calm - N/A   Unknown
7:55 AM 50.0 °F 48.2 °F 94% 30.04 in 10.0 mi Calm Calm - N/A   Unknown
8:15 AM 51.8 °F 48.2 °F 88% 30.05 in 10.0 mi Calm Calm - N/A   Unknown
8:35 AM 51.8 °F 48.2 °F 88% 30.06 in 10.0 mi Calm Calm - N/A   Unknown
8:55 AM 51.8 °F 48.2 °F 88% 30.07 in 10.0 mi Calm Calm - N/A   Unknown
9:15 AM 51.8 °F 48.2 °F 88% 30.08 in 3.0 mi Calm Calm - N/A Rain Light Rain
9:35 AM 50.0 °F 50.0 °F 100% 30.08 in 1.2 mi Calm Calm - 0.01 in Rain Light Rain
9:55 AM 50.0 °F 50.0 °F 100% 30.08 in 4.0 mi Calm Calm - 0.02 in Rain Light Rain
10:15 AM 50.0 °F 50.0 °F 100% 30.09 in 1.8 mi Calm Calm - N/A Rain Light Rain
10:35 AM 50.0 °F 50.0 °F 100% 30.09 in 7.0 mi SW 3.5 mph - N/A   Unknown
10:55 AM 50.0 °F 50.0 °F 100% 30.10 in 10.0 mi SW 4.6 mph - N/A   Unknown
11:15 AM 50.0 °F 50.0 °F 100% 30.10 in 10.0 mi WSW 9.2 mph - N/A   Unknown
11:35 AM 51.8 °F 50.0 °F 94% 30.10 in 10.0 mi WSW 6.9 mph - N/A   Unknown
11:55 AM 51.8 °F 50.0 °F 94% 30.10 in 10.0 mi SW 5.8 mph - N/A   Unknown
12:15 PM 51.8 °F 48.2 °F 88% 30.10 in 10.0 mi SW 9.2 mph 16.1 mph N/A   Unknown
12:35 PM 51.8 °F 48.2 °F 88% 30.10 in 10.0 mi Calm Calm - N/A   Unknown
12:55 PM 50.0 °F 48.2 °F 94% 30.10 in 10.0 mi SW 3.5 mph - N/A   Unknown
1:15 PM 50.0 °F 48.2 °F 94% 30.10 in 3.0 mi SW 3.5 mph - N/A Rain Light Rain
1:35 PM 50.0 °F 48.2 °F 94% 30.11 in 6.0 mi SW 5.8 mph - N/A   Mist
1:55 PM 50.0 °F 48.2 °F 94% 30.11 in 10.0 mi Calm Calm - N/A   Unknown
2:15 PM 50.0 °F 48.2 °F 94% 30.11 in 10.0 mi Calm Calm - N/A   Unknown
2:35 PM 50.0 °F 48.2 °F 94% 30.12 in 10.0 mi Calm Calm - N/A   Unknown
2:55 PM 50.0 °F 48.2 °F 94% 30.12 in 10.0 mi SSW 4.6 mph - N/A   Unknown
3:15 PM 51.8 °F 46.4 °F 82% 30.12 in 10.0 mi SW 3.5 mph - N/A   Unknown
3:35 PM 50.0 °F 46.4 °F 87% 30.13 in 10.0 mi Calm Calm - N/A   Unknown
3:55 PM 50.0 °F 46.4 °F 87% 30.14 in 10.0 mi Calm Calm - N/A   Unknown
4:15 PM 50.0 °F 46.4 °F 87% 30.15 in 10.0 mi Calm Calm - N/A   Unknown
4:35 PM 50.0 °F 46.4 °F 87% 30.15 in 10.0 mi Calm Calm - N/A   Unknown
4:55 PM 50.0 °F 46.4 °F 87% 30.16 in 10.0 mi Calm Calm - N/A   Unknown
5:15 PM 50.0 °F 44.6 °F 82% 30.17 in 10.0 mi Calm Calm - N/A   Unknown
5:35 PM 50.0 °F 44.6 °F 82% 30.18 in 10.0 mi Calm Calm - N/A   Unknown
5:55 PM 50.0 °F 44.6 °F 82% 30.18 in 10.0 mi Calm Calm - N/A   Unknown
6:15 PM 50.0 °F 44.6 °F 82% 30.19 in 10.0 mi Calm Calm - N/A   Unknown
6:35 PM 50.0 °F 44.6 °F 82% 30.20 in 10.0 mi Calm Calm - N/A   Unknown
6:55 PM 48.2 °F 46.4 °F 93% 30.20 in 10.0 mi Calm Calm - N/A   Unknown
7:15 PM 48.2 °F 44.6 °F 87% 30.21 in 10.0 mi Calm Calm - N/A   Unknown
7:35 PM 48.2 °F 44.6 °F 87% 30.21 in 10.0 mi Calm Calm - N/A   Unknown
7:55 PM 46.4 °F 44.6 °F 93% 30.21 in 10.0 mi Calm Calm - N/A   Unknown
8:15 PM 46.4 °F 44.6 °F 93% 30.21 in 10.0 mi Calm Calm - N/A   Unknown
8:35 PM 48.2 °F 44.6 °F 87% 30.22 in 10.0 mi Calm Calm - N/A   Unknown
8:55 PM 46.4 °F 42.8 °F 87% 30.22 in 10.0 mi Calm Calm - N/A   Unknown
9:15 PM 46.4 °F 42.8 °F 87% 30.23 in 10.0 mi Calm Calm - N/A   Unknown
9:35 PM 46.4 °F 42.8 °F 87% 30.23 in 10.0 mi Calm Calm - N/A   Unknown
9:55 PM 48.2 °F 42.8 °F 82% 30.24 in 10.0 mi Calm Calm - N/A   Unknown
10:35 PM 42.8 °F 42.8 °F 100% 30.24 in 10.0 mi Calm Calm - N/A   Unknown
10:55 PM 41.0 °F 41.0 °F 100% 30.25 in 10.0 mi Calm Calm - N/A   Unknown
11:15 PM 41.0 °F 41.0 °F 100% 30.25 in 10.0 mi Calm Calm - N/A   Unknown
11:35 PM 41.0 °F 41.0 °F 100% 30.25 in 10.0 mi Calm Calm - N/A   Unknown
11:55 PM 41.0 °F 41.0 °F 100% 30.25 in 10.0 mi Calm Calm - N/A   Unknown